Weather in Pechatniki

Russia / Smolensk Oblast     55°37′59″N   33°23′05″E
temp.,
°C
wind,
m/s
gust,
m/s
humid.,
%
clouds,
%
prec.,
mm/h
press.,
hPa
HPBL,
m
6 may, thu
thu600:00+8sse31194100 0.0 1004286
03:00+8s4159393 0.0 1002405
06:00+8s5159598 0.0 1000534
09:00+10s71486100 0.1 999940
12:00+9s81792100 2.3 9981631
15:00+6wsw41093100 3.6 1002868
18:00+8sw5118186 0.7 10031405
21:00+5sw4128864 1.3 1006777
7 may, fri
fri700:00+4sw513862 0.0 1007619
03:00+2sw413895 0.0 1008558
06:00+2ssw412905 0.0 1009360
09:00+7ssw41175100 0.0 1010761
12:00+8sw5107698 0.7 10101355
15:00+10sw586796 1.5 10091430
18:00+11ssw3571100 0.5 1009843
21:00+8sse41088100 0.8 1008627
8 may, sat
sat800:00+8sse51295100 5.6 10051245
03:00+8ssw51094100 9.0 10031023
06:00+8s41097100 0.2 1003606
09:00+9s4996100 1.3 1001763
12:00+10ssw61085100 1.4 10001143
15:00+7sw8127597 1.6 10021271
18:00+3sw61489100 0.3 10031467
21:00+4wsw71484100 0.4 10031385
9 may, sun
sun900:00+3wsw61396100 0.3 10041076
03:00+3w61497100 0.8 10071172
06:00+3wnw61286100 0.1 10111213
09:00+6wnw612715 0.1 10141059
12:00+10wnw69435 0.0 10171777
15:00+11wnw58353 0.0 10191972
18:00+11nw374726 0.0 10201876
21:00+6wnw116982 0.0 102310
10 may, mon
mon1000:00+3wsw22818 0.0 102424
03:00+3sw227853 0.0 102618
06:00+4ssw257671 0.0 1027103
09:00+10ssw3557100 0.0 1027491
12:00+13sw3453100 0.0 10271051
15:00+13ssw345661 0.0 1027683
18:00+14s22596 0.0 10261023
21:00+9sse22821 0.0 102712